Flag for Spain Weather past 2 weeks in Santander, Spain

Now
63 °F

Passing clouds.


Feels Like: 63 °F
Forecast: 65 / 76 °F
Wind: 2 mph from North

Location: Santander / Parayas

Current Time: Jul 30, 2014 at 9:07:10 AM

Latest Report: Jul 30, 2014 at 8:30 AM


Visibility: N/A

Pressure: 30.09 "Hg

Humidity: 83%

Dew point: 57 °F

Location of SantanderLocation

Historic Weather in Santander — Graph

°F

Santander temperature yesterday

Maximum temperature yesterday: 72 °F (at 2:30 PM)
Minimum temperature yesterday: 64 °F (at 5:30 AM)
Average temperature yesterday: 69 °F

Past Weeks' High & Low Weather Summary

 TemperatureHumidityPressure
High84 °F (Jul 17, 5:30 PM)100% (Jul 15, 7:30 AM)30.27 "Hg (Jul 15, 7:30 AM)
Low57 °F (Jul 15, 7:00 AM)32% (Jul 17, 5:00 PM)29.74 "Hg (Jul 19, 12:00 PM)
Average70 °F78%30.03 "Hg
* Reported Jul 15 7:00 AM — Jul 30 7:30 AM, Santander, Weather by CustomWeather, © 2014

Note: Actual official high and low records may vary slightly from our data, if they occured in-between our weather recording intervals... More about our weather records

Advertising

Santander weather history for previous 24 hours

 ConditionsComfort  
Time TempWeatherWind HumidityBarometerVisibility
7:30 AM
Jul 30
61 °FPassing clouds.7 mph83%30.09 "HgN/A
7:00 AM61 °FPassing clouds.1 mph83%30.09 "HgN/A
6:30 AM61 °FPassing clouds.No wind88%30.09 "HgN/A
6:00 AM61 °FPassing clouds.7 mph88%30.09 "HgN/A
5:30 AM61 °FPassing clouds.1 mph83%30.09 "HgN/A
11:00 PM
Jul 29
66 °FPassing clouds.2 mph78%30.12 "HgN/A
10:30 PM68 °FPassing clouds.5 mph73%30.12 "HgN/A
10:00 PM68 °FScattered clouds.5 mph73%30.12 "HgN/A
9:30 PM68 °FScattered clouds.3 mph73%30.12 "HgN/A
9:00 PM68 °FScattered clouds.5 mph73%30.12 "HgN/A
8:30 PM70 °FScattered clouds.3 mph69%30.12 "HgN/A
8:00 PM70 °FScattered clouds.6 mph64%30.12 "HgN/A
7:30 PM70 °FScattered clouds.9 mph69%30.12 "HgN/A
7:00 PM70 °FScattered clouds.8 mph64%30.12 "HgN/A
6:30 PM72 °FPassing clouds.8 mph53%30.12 "HgN/A
6:00 PM72 °FPassing clouds.8 mph57%30.12 "HgN/A
5:30 PM72 °FPassing clouds.9 mph61%30.12 "HgN/A
5:00 PM72 °FPassing clouds.9 mph61%30.12 "HgN/A
4:30 PM70 °FPassing clouds.9 mph60%30.12 "HgN/A
4:00 PM72 °FPassing clouds.9 mph57%30.12 "HgN/A
3:30 PM72 °FPassing clouds.9 mph61%30.12 "HgN/A
3:00 PM70 °FPassing clouds.10 mph60%30.12 "HgN/A
2:30 PM72 °FPassing clouds.8 mph57%30.12 "HgN/A
2:00 PM68 °FScattered clouds.9 mph73%30.12 "HgN/A
1:30 PM70 °FBroken clouds.9 mph69%30.12 "HgN/A
1:00 PM70 °FScattered clouds.9 mph64%30.12 "HgN/A
12:30 PM70 °FScattered clouds.8 mph69%30.12 "HgN/A
12:00 PM70 °FScattered clouds.8 mph64%30.12 "HgN/A
11:30 AM68 °FScattered clouds.7 mph73%30.12 "HgN/A
11:00 AM68 °FScattered clouds.9 mph69%30.12 "HgN/A
10:30 AM68 °FScattered clouds.8 mph73%30.12 "HgN/A
10:00 AM68 °FScattered clouds.8 mph78%30.12 "HgN/A
9:30 AM66 °FScattered clouds.2 mph83%30.12 "HgN/A
9:00 AM66 °FBroken clouds.9 mph78%30.12 "HgN/A
Weather by CustomWeather, © 2014

See weather overviewHow to use our weather pages